Date String (YYYY-MM-DD hh:mm:ss) UTC,Instrument flags,Ambient pressure (hPa),Sample flow (lpm),Bypass flow (lpm),Sample temperature (°C),Ambient temperature (°C),ASC tube jacket temperature (°C),LED temperature (°C),Box temperature (°C),Sample RH (%),Span deviation,Mass concentration (μg/m³),Mass concentration (μg/m³),Mass concentration (μg/m³)
DateTimeUTC,F1_M11,P_M11,Q1_M11,Q2_M11,T1_M11,T2_M11,T3_M11,T4_M11,T5_M11,U1_M11,ZSPAN_M11,X0_M11,X2_M11,X1_M11
2021-10-18 20:00:00,,0819.6,4.99,0.00,29.9,28.5,00.0,39.0,31.7,10.4,0000.0,0019.29,0004.09,0002.59
2021-10-18 20:01:00,,0819.6,5.01,0.00,29.9,28.7,00.0,39.0,31.8,10.4,0000.0,0019.29,0004.06,0002.55
2021-10-18 20:02:00,,0819.5,4.99,0.00,30.0,28.9,00.0,39.0,31.9,10.3,0000.0,0018.78,0004.04,0002.51
2021-10-18 20:03:00,,0819.6,5.00,0.00,30.0,29.1,00.0,39.0,31.9,10.4,0000.0,0019.24,0004.00,0002.46
2021-10-18 20:04:00,,0819.6,5.00,0.00,30.1,29.2,00.0,39.0,32.0,10.5,0000.0,0019.14,0003.96,0002.43
2021-10-18 20:05:00,,0819.6,5.00,0.00,30.1,29.3,00.0,39.0,32.0,10.4,0000.0,0018.20,0003.95,0002.41
2021-10-18 20:06:00,,0819.6,5.01,0.00,30.2,29.4,00.0,39.1,32.1,10.0,0000.0,0017.33,0003.90,0002.38
2021-10-18 20:07:00,,0819.5,5.01,0.00,30.3,29.5,00.0,39.1,32.1,09.8,0000.0,0016.87,0003.83,0002.34
2021-10-18 20:08:00,,0819.4,4.99,0.00,30.2,28.3,00.0,39.1,31.8,09.8,0000.0,0016.10,0003.78,0002.31
2021-10-18 20:09:00,,0819.5,4.98,0.00,30.0,26.2,00.0,39.1,31.2,09.9,0000.0,0015.35,0003.73,0002.28
2021-10-18 20:10:00,,0819.5,5.01,0.00,29.9,26.0,00.0,39.1,31.1,10.1,0000.0,0015.08,0003.64,0002.27
2021-10-18 20:11:00,,0819.4,5.00,0.00,29.8,26.5,00.0,39.0,31.3,10.2,0000.0,0014.33,0003.60,0002.25
2021-10-18 20:12:00,,0819.4,5.00,0.00,29.8,27.0,00.0,39.0,31.3,10.3,0000.0,0013.90,0003.55,0002.23
2021-10-18 20:13:00,,0819.4,5.01,0.00,29.8,27.5,00.0,38.9,31.4,10.3,0000.0,0014.42,0003.54,0002.22
2021-10-18 20:14:00,,0819.4,4.99,0.00,29.8,27.9,00.0,38.9,31.5,10.4,0000.0,0015.05,0003.49,0002.20
2021-10-18 20:15:00,,0819.3,5.01,0.00,29.8,28.2,00.0,38.9,31.6,10.2,0000.0,0013.97,0003.45,0002.17
2021-10-18 20:16:00,,0819.3,4.99,0.00,29.9,28.5,00.0,38.9,31.7,10.1,0000.0,0013.53,0003.44,0002.15
2021-10-18 20:17:00,,0819.2,5.01,0.00,29.9,28.7,00.0,38.9,31.7,10.1,0000.0,0013.78,0003.47,0002.11
2021-10-18 20:18:00,,0819.3,4.99,0.00,29.9,28.9,00.0,38.9,31.8,10.0,0000.0,0013.06,0003.46,0002.09
2021-10-18 20:19:00,,0819.3,5.00,0.00,30.0,29.1,00.0,39.0,31.9,10.0,0000.0,0012.41,0003.43,0002.09
2021-10-18 20:20:00,,0819.3,5.01,0.00,30.1,29.2,00.0,39.0,32.0,10.1,0000.0,0012.51,0003.37,0002.07
2021-10-18 20:21:00,,0819.3,4.99,0.00,30.1,29.3,00.0,39.0,32.0,10.1,0000.0,0012.77,0003.43,0002.06
2021-10-18 20:22:00,,0819.3,5.00,0.00,30.2,29.4,00.0,39.0,32.1,10.0,0000.0,0012.56,0003.44,0002.06
2021-10-18 20:23:00,,0819.3,5.01,0.00,30.2,29.1,00.0,39.1,32.0,10.0,0000.0,0012.50,0003.44,0002.06
2021-10-18 20:24:00,,0819.2,5.01,0.00,30.1,27.2,00.0,39.1,31.5,10.1,0000.0,0013.37,0003.44,0002.04
2021-10-18 20:25:00,,0819.1,5.00,0.00,29.9,26.0,00.0,39.0,31.2,10.3,0000.0,0013.18,0003.43,0002.02
2021-10-18 20:26:00,,0819.1,5.00,0.00,29.9,26.3,00.0,39.0,31.3,10.2,0000.0,0013.14,0003.44,0002.04
2021-10-18 20:27:00,,0819.1,5.00,0.00,29.8,26.8,00.0,39.0,31.3,10.2,0000.0,0013.48,0003.47,0002.05
2021-10-18 20:28:00,,0819.1,5.00,0.00,29.8,27.2,00.0,38.9,31.4,10.1,0000.0,0013.67,0003.41,0002.07
2021-10-18 20:29:00,,0819.1,4.99,0.00,29.8,27.7,00.0,38.9,31.4,10.0,0000.0,0013.46,0003.39,0002.07
2021-10-18 20:30:00,,0819.2,5.01,0.00,29.8,28.0,00.0,38.9,31.5,10.1,0000.0,0013.55,0003.41,0002.07
2021-10-18 20:31:00,,0819.1,4.99,0.00,29.8,28.3,00.0,38.9,31.6,10.2,0000.0,0012.68,0003.45,0002.09
2021-10-18 20:32:00,,0819.1,5.00,0.00,29.9,28.6,00.0,38.9,31.7,10.1,0000.0,0012.76,0003.44,0002.10
2021-10-18 20:33:00,,0819.1,5.00,0.00,29.9,28.8,00.0,38.9,31.8,10.1,0000.0,0013.94,0003.49,0002.10
2021-10-18 20:34:00,,0819.1,5.01,0.00,30.0,29.0,00.0,38.9,31.9,10.0,0000.0,0014.57,0003.51,0002.10
2021-10-18 20:35:00,,0819.1,4.99,0.00,30.0,29.2,00.0,38.9,31.9,10.0,0000.0,0013.52,0003.46,0002.10
2021-10-18 20:36:00,,0819.2,5.00,0.00,30.1,29.3,00.0,39.0,32.0,10.0,0000.0,0013.73,0003.52,0002.11
2021-10-18 20:37:00,,0819.1,5.00,0.00,30.1,28.8,00.0,39.0,31.8,10.2,0000.0,0014.16,0003.53,0002.09
2021-10-18 20:38:00,,0819.1,5.00,0.00,30.0,26.7,00.0,39.0,31.2,10.2,0000.0,0014.64,0003.51,0002.08
2021-10-18 20:39:00,,0819.1,5.00,0.00,29.8,25.9,00.0,38.9,31.0,10.3,0000.0,0014.41,0003.50,0002.06
2021-10-18 20:40:00,,0819.1,5.01,0.00,29.7,26.3,00.0,38.9,31.1,10.3,0000.0,0015.48,0003.55,0002.06
2021-10-18 20:41:00,,0819.1,4.99,0.00,29.7,26.8,00.0,38.9,31.2,10.3,0000.0,0015.52,0003.56,0002.05
2021-10-18 20:42:00,,0819.1,5.01,0.00,29.7,27.3,00.0,38.8,31.3,10.4,0000.0,0015.75,0003.56,0002.04
2021-10-18 20:43:00,,0819.1,4.99,0.00,29.7,27.7,00.0,38.8,31.4,10.5,0000.0,0016.40,0003.60,0002.05
2021-10-18 20:44:00,,0819.0,5.01,0.00,29.7,28.1,00.0,38.8,31.5,10.5,0000.0,0016.39,0003.55,0002.07
2021-10-18 20:45:00,,0819.1,4.99,0.00,29.8,28.4,00.0,38.8,31.6,10.5,0000.0,0016.26,0003.60,0002.11
2021-10-18 20:46:00,,0819.0,5.00,0.00,29.9,28.7,00.0,38.8,31.7,10.2,0000.0,0016.03,0003.67,0002.13
2021-10-18 20:47:00,,0819.0,5.00,0.00,29.9,28.9,00.0,38.8,31.8,09.6,0000.0,0014.78,0003.60,0002.12
2021-10-18 20:48:00,,0819.0,5.02,0.00,30.0,29.0,00.0,38.9,31.9,09.6,0000.0,0013.83,0003.55,0002.13
2021-10-18 20:49:00,,0818.9,4.99,0.00,30.0,29.2,00.0,38.9,31.9,09.5,0000.0,0013.10,0003.51,0002.14
2021-10-18 20:50:00,,0818.9,5.00,0.00,30.0,29.3,00.0,38.9,32.0,09.5,0000.0,0012.28,0003.50,0002.15
2021-10-18 20:51:00,,0818.9,5.01,0.00,30.1,29.4,00.0,38.9,32.0,09.5,0000.0,0010.98,0003.46,0002.18
2021-10-18 20:52:00,,0819.0,4.99,0.00,30.1,29.4,00.0,39.0,32.0,09.5,0000.0,0010.90,0003.45,0002.19
2021-10-18 20:53:00,,0818.9,5.00,0.00,30.1,27.8,00.0,39.0,31.6,09.5,0000.0,0010.47,0003.41,0002.21
2021-10-18 20:54:00,,0818.9,4.99,0.00,29.9,26.1,00.0,38.9,31.1,09.8,0000.0,0009.79,0003.36,0002.20
2021-10-18 20:55:00,,0818.9,5.00,0.00,29.8,26.1,00.0,38.9,31.1,09.7,0000.0,0009.39,0003.36,0002.20
2021-10-18 20:56:00,,0818.9,5.01,0.00,29.7,26.6,00.0,38.9,31.2,09.8,0000.0,0009.01,0003.31,0002.17
2021-10-18 20:57:00,,0819.0,5.00,0.00,29.7,27.1,00.0,38.9,31.3,09.9,0000.0,0009.16,0003.26,0002.16
2021-10-18 20:58:00,,0819.0,5.01,0.00,29.7,27.5,00.0,38.8,31.4,09.8,0000.0,0009.48,0003.24,0002.17
2021-10-18 20:59:00,,0819.0,4.99,0.00,29.7,27.9,00.0,38.8,31.5,09.9,0000.0,0009.94,0003.32,0002.18
